Dania, FL

8:50 PM EST on January 22, 2017 (GMT -0500)
Fort Lauderdale-Hollywood International

Weather History for KFLL - December, 2013

Change the Weather History Date:

Thursday, December 5, 2013

  Actual Average Record
Temperature  
Mean Temperature 76 °F 73 °F  
Max Temperature 81 °F 79 °F 87 °F (1978)
Min Temperature 71 °F 66 °F 40 °F (1957)
Degree Days  
Heating Degree Days 0 0  
Month to date heating degree days 0 0  
Since 1 July heating degree days 4 2  
Cooling Degree Days 11 8  
Month to date cooling degree days 29 41  
Year to date cooling degree days 4381 4554  
Growing Degree Days 26 (Base 50)    
Moisture  
Dew Point 69 °F    
Average Humidity 77    
Maximum Humidity 84    
Minimum Humidity 69    
Precipitation  
Precipitation 0.00 in 0.09 in 1.47 in (1985)
Month to date precipitation 0.70 0.41  
Year to date precipitation 75.96 60.13  
Snow  
Snow 0.00 in - - ()
Month to date snowfall 0.0  
Since 1 July snowfall 0.0  
Snow Depth 0.00 in    
Sea Level Pressure  
Sea Level Pressure 30.12 in    
Wind  
Wind Speed 12 mph (ESE)    
Max Wind Speed 18 mph    
Max Gust Speed 23 mph    
Visibility 10 miles    
Events      
T = Trace of Precipitation, MM = Missing Value Source: NWS Daily Summary

Daily Weather History Graph

Daily Weather History Graph

Search for Another Location

Airport or City:

Trip Planner

Search our weather history database for the weather conditions in past years. The results will help you decide how hot, cold, wet, or windy it might be!

Date:

Astronomy

Dec. 05, 2013 Rise Set
Actual Time 6:53 AM EST 5:28 PM EST
Civil Twilight 6:28 AM EST 5:53 PM EST
Nautical Twilight 6:00 AM EST 6:22 PM EST
Astronomical Twilight 5:32 AM EST 6:50 PM EST
Moon 9:19 AM EST (12/5) 8:38 PM EST (12/5)
Length of Visible Light 11h 25m
Length of Day
10h 35m
Waxing Crescent, 10% of the Moon is Illuminated
Dec 5
Waxing Crescent
Dec 9
First Quarter
Dec 17
Full
Dec 25
Last Quarter
Jan 1
New

Hourly Weather History & Observations

Time (EST) Temp. Heat Index Dew Point Humidity Pressure Visibility Wind Dir Wind Speed Gust Speed Precip Events Conditions
12:53 AM 72.0 °F - 66.9 °F 84% 30.09 in 10.0 mi ESE 4.6 mph - N/A   Partly Cloudy
1:53 AM 71.1 °F - 66.9 °F 87% 30.09 in 10.0 mi SE 4.6 mph - N/A   Scattered Clouds
2:53 AM 72.0 °F - 66.0 °F 81% 30.09 in 10.0 mi ESE 6.9 mph - N/A   Partly Cloudy
3:53 AM 73.0 °F - 66.0 °F 79% 30.09 in 10.0 mi East 9.2 mph - N/A   Scattered Clouds
4:53 AM 73.0 °F - 66.9 °F 81% 30.09 in 10.0 mi East 8.1 mph - N/A   Scattered Clouds
5:53 AM 73.0 °F - 66.9 °F 81% 30.10 in 10.0 mi ESE 8.1 mph - N/A   Scattered Clouds
6:53 AM 73.9 °F - 68.0 °F 82% 30.12 in 10.0 mi ESE 10.4 mph - N/A   Scattered Clouds
7:53 AM 75.0 °F - 66.9 °F 76% 30.14 in 10.0 mi ESE 11.5 mph - N/A   Scattered Clouds
8:53 AM 77.0 °F - 68.0 °F 74% 30.16 in 10.0 mi SE 12.7 mph - N/A   Partly Cloudy
9:53 AM 78.1 °F - 69.1 °F 74% 30.17 in 10.0 mi SE 15.0 mph 19.6 mph N/A   Partly Cloudy
10:53 AM 79.0 °F - 69.1 °F 72% 30.17 in 10.0 mi SE 13.8 mph - N/A   Partly Cloudy
11:53 AM 80.1 °F 82.9 °F 69.1 °F 69% 30.15 in 10.0 mi SE 16.1 mph - N/A   Partly Cloudy
12:53 PM 80.1 °F 83.2 °F 70.0 °F 71% 30.12 in 10.0 mi SE 15.0 mph - N/A   Scattered Clouds
1:53 PM 80.1 °F 83.2 °F 70.0 °F 71% 30.11 in 10.0 mi SE 15.0 mph - N/A   Mostly Cloudy
2:53 PM 79.0 °F - 70.0 °F 74% 30.09 in 10.0 mi SE 16.1 mph - N/A   Scattered Clouds
3:53 PM 79.0 °F - 69.1 °F 72% 30.10 in 10.0 mi SE 13.8 mph - N/A   Scattered Clouds
4:53 PM 77.0 °F - 70.0 °F 79% 30.10 in 10.0 mi SE 11.5 mph - N/A   Scattered Clouds
5:31 PM 77.0 °F - 69.8 °F 78% 30.10 in 1.8 mi SE 11.5 mph - N/A   Haze
5:46 PM 77.0 °F - 69.8 °F 78% 30.10 in 10.0 mi SE 11.5 mph - N/A   Scattered Clouds
5:53 PM 75.9 °F - 69.1 °F 79% 30.10 in 10.0 mi ESE 10.4 mph - N/A   Partly Cloudy
6:53 PM 75.9 °F - 69.1 °F 79% 30.12 in 10.0 mi ESE 11.5 mph - N/A   Partly Cloudy
7:53 PM 75.9 °F - 69.1 °F 79% 30.13 in 10.0 mi ESE 11.5 mph - N/A   Partly Cloudy
8:53 PM 75.9 °F - 69.1 °F 79% 30.14 in 10.0 mi ESE 11.5 mph - N/A   Partly Cloudy
9:53 PM 75.9 °F - 69.1 °F 79% 30.14 in 10.0 mi ESE 15.0 mph 21.9 mph N/A   Partly Cloudy
10:53 PM 75.9 °F - 69.1 °F 79% 30.14 in 10.0 mi ESE 15.0 mph - N/A   Scattered Clouds
11:53 PM 75.9 °F - 70.0 °F 82% 30.13 in 10.0 mi ESE 12.7 mph - N/A   Scattered Clouds